User: anonymous   Login
Location: Unspecified
(0.0000°N, 0.0000°E)
Time: 06:29:28
(UTC+02:00)
Language:

Sapphire - Orbit

View from above orbital plane
View from above orbital plane
View from above satellite
View from above satellite

Ground track
Ground track

The orbit data is extracted from the following two-line orbital elements,

1 26932U 01043D   15244.73797990 -.00000012  00000-0  27361-4 0  9994
2 26932  67.0581 341.0783 0004136 271.6682  88.3946 14.30163603726788
Epoch (UTC): 01 September 2015 17:42:41
Eccentricity: 0.0004136
inclination: 67.0581°
perigee height: 788 km
apogee height: 794 km
right ascension of ascending node: 341.0783°
argument of perigee: 271.6682°
revolutions per day: 14.30163603
mean anomaly at epoch: 88.3946°
orbit number at epoch: 72678

The dashed part of the orbit path shows where the satellite is in the earth's shadow,  

DLR